{"data":{"norad_id":81311,"intl_designator":"","name":"UNKNOWN","alt_names":[],"object_type":"UNKNOWN","status":"UNKNOWN","operator":null,"country":null,"launch_date":null,"launch_site_code":null,"launch_vehicle":null,"mission":null,"orbit_class":"UNKNOWN","rcs_meters":null,"size_class":null,"mass_kg":null,"dimensions":null,"purposes":[],"wikipedia_slug":null,"has_3d_model":false,"image_url":null,"decayed_at":null,"tle_current":{"epoch":"2026-05-20T03:29:18.495744Z","epoch_age_seconds":505075,"freshness":"STALE","line1":"1 81311U          26140.14535296  .00000252  00000+0  61926-4 0  9998","line2":"2 81311  98.7074 209.6987 0130817   0.8287  28.9911 14.56782336662657","mean_motion":14.56782336,"eccentricity":0.0130817,"inclination_deg":98.7074,"raan_deg":209.6987,"arg_perigee_deg":0.8287,"mean_anomaly_deg":28.9911,"bstar":6.1926e-5,"rev_number":66265,"period_min":98.847986031593,"perigee_km":610.94171985715,"apogee_km":796.22358379575,"semimajor_km":7081.7196518264,"source":"CELESTRAK","updated_at":"2026-05-25T13:38:09.448499Z"}}}